| time (UTC) | temp F | wind direction | speed knots | gust knots | rain 1hr in | rain 24hr in | rain mn in | humidity % | barometer mb |
| 20260504050246 | 51 | 174 | 4.3 | 10.4 | 0.00 | 0.00 | 0.00 | 68 | 1006.5 |
| 20260504045249 | 51 | 186 | 3.5 | 9.6 | 0.00 | 0.00 | 0.00 | 67 | 1006.7 |
| 20260504044248 | 51 | 155 | 4.3 | 10.4 | 0.00 | 0.00 | 0.00 | 67 | 1006.8 |
| 20260504043246 | 51 | 175 | 3.5 | 10.4 | 0.00 | 0.00 | 0.00 | 66 | 1006.7 |
| 20260504042249 | 51 | 240 | 3.5 | 9.6 | 0.00 | 0.00 | 0.00 | 66 | 1006.8 |
| 20260504041247 | 51 | 159 | 6.1 | 17.4 | 0.00 | 0.00 | 0.00 | 66 | 1007.0 |
| 20260504040246 | 51 | 173 | 4.3 | 12.2 | 0.00 | 0.00 | 0.00 | 66 | 1007.0 |
| 20260504035255 | 51 | 224 | 4.3 | 10.4 | 0.00 | 0.00 | 0.00 | 65 | 1007.1 |
| 20260504034252 | 51 | 155 | 6.1 | 15.6 | 0.00 | 0.00 | 0.00 | 65 | 1007.1 |
| 20260504033252 | 52 | 205 | 4.3 | 12.2 | 0.00 | 0.00 | 0.00 | 65 | 1007.2 |
| 20260504032300 | 52 | 171 | 4.3 | 12.2 | 0.00 | 0.00 | 0.00 | 65 | 1007.2 |
| 20260504031254 | 52 | 156 | 4.3 | 15.6 | 0.00 | 0.00 | 0.00 | 65 | 1007.3 |
| 20260504030253 | 53 | 161 | 4.3 | 12.2 | 0.00 | 0.00 | 0.00 | 64 | 1007.4 |
| 20260504025257 | 53 | 163 | 3.5 | 12.2 | 0.00 | 0.00 | 0.00 | 64 | 1007.5 |
| 20260504024256 | 53 | 197 | 4.3 | 13.9 | 0.00 | 0.00 | 0.00 | 63 | 1007.6 |
| 20260504023250 | 53 | 180 | 4.3 | 12.2 | 0.00 | 0.00 | 0.00 | 63 | 1007.6 |
| 20260504022251 | 53 | 164 | 4.3 | 12.2 | 0.00 | 0.00 | 0.00 | 63 | 1007.8 |
| 20260504021251 | 53 | 166 | 3.5 | 13.9 | 0.00 | 0.00 | 0.00 | 63 | 1007.8 |
| 20260504020248 | 53 | 135 | 3.5 | 12.2 | 0.00 | 0.00 | 0.00 | 63 | 1007.8 |
| 20260504015247 | 53 | 207 | 4.3 | 9.6 | 0.00 | 0.00 | 0.00 | 63 | 1007.8 |
| 20260504014246 | 53 | 207 | 3.5 | 7.8 | 0.00 | 0.00 | 0.00 | 62 | 1007.6 |
| 20260504013246 | 53 | 161 | 3.5 | 9.6 | 0.00 | 0.00 | 0.00 | 62 | 1007.7 |
| 20260504012248 | 53 | 248 | 3.5 | 7.8 | 0.00 | 0.00 | 0.00 | 61 | 1007.6 |
| 20260504011248 | 54 | 202 | 3.5 | 7.8 | 0.00 | 0.00 | 0.00 | 60 | 1007.7 |
| 20260504010242 | 55 | 156 | 3.5 | 12.2 | 0.00 | 0.00 | 0.00 | 59 | 1007.7 |
| 20260504005239 | 55 | 190 | 3.5 | 10.4 | 0.00 | 0.00 | 0.00 | 59 | 1007.7 |
| 20260504004241 | 56 | 188 | 4.3 | 12.2 | 0.00 | 0.00 | 0.00 | 58 | 1007.6 |
| 20260504003242 | 56 | 210 | 3.5 | 12.2 | 0.00 | 0.00 | 0.00 | 57 | 1007.5 |
| 20260504002239 | 57 | 259 | 3.5 | 12.2 | 0.00 | 0.00 | 0.00 | 55 | 1007.4 |
| 20260504001241 | 57 | 210 | 3.5 | 9.6 | 0.00 | 0.00 | 0.00 | 53 | 1007.3 |
| 20260504000241 | 57 | 238 | 3.5 | 10.4 | 0.00 | 0.00 | 0.00 | 52 | 1007.3 |
| 20260503235240 | 58 | 217 | 3.5 | 10.4 | 0.00 | 0.00 | 0.00 | 50 | 1007.2 |
| 20260503234243 | 58 | 257 | 3.5 | 12.2 | 0.00 | 0.00 | 0.00 | 50 | 1007.2 |
| 20260503233236 | 58 | 242 | 3.5 | 10.4 | 0.00 | 0.00 | 0.00 | 50 | 1007.1 |
| 20260503232235 | 58 | 126 | 3.5 | 10.4 | 0.00 | 0.00 | 0.00 | 49 | 1007.1 |
| 20260503231237 | 59 | 172 | 3.5 | 15.6 | 0.00 | 0.00 | 0.00 | 48 | 1007.2 |
| 20260503230234 | 59 | 246 | 3.5 | 10.4 | 0.00 | 0.00 | 0.00 | 47 | 1007.3 |
| 20260503225233 | 59 | 269 | 3.5 | 12.2 | 0.00 | 0.00 | 0.00 | 46 | 1007.5 |
| 20260503224233 | 60 | 240 | 3.5 | 12.2 | 0.00 | 0.00 | 0.00 | 45 | 1007.5 |
| 20260503223235 | 60 | 292 | 4.3 | 25.2 | 0.00 | 0.00 | 0.00 | 45 | 1007.5 |
| 20260503222235 | 60 | 236 | 6.1 | 23.5 | 0.00 | 0.00 | 0.00 | 45 | 1007.5 |
| 20260503221235 | 61 | 266 | 4.3 | 17.4 | 0.00 | 0.00 | 0.00 | 45 | 1007.4 |
| 20260503220229 | 60 | 343 | 4.3 | 12.2 | 0.00 | 0.00 | 0.00 | 45 | 1007.6 |
| 20260503215230 | 60 | 182 | 6.1 | 25.2 | 0.00 | 0.00 | 0.00 | 43 | 1007.5 |
| 20260503214229 | 61 | 184 | 4.3 | 15.6 | 0.00 | 0.00 | 0.00 | 42 | 1007.6 |
| 20260503213231 | 61 | 260 | 4.3 | 13.9 | 0.00 | 0.00 | 0.00 | 43 | 1007.6 |
| 20260503212228 | 61 | 261 | 6.1 | 13.9 | 0.00 | 0.00 | 0.00 | 41 | 1007.4 |
| 20260503211228 | 61 | 198 | 4.3 | 21.7 | 0.00 | 0.00 | 0.00 | 40 | 1007.5 |
| 20260503210227 | 61 | 74 | 4.3 | 12.2 | 0.00 | 0.00 | 0.00 | 42 | 1007.6 |
| 20260503205227 | 62 | 266 | 4.3 | 20.0 | 0.00 | 0.00 | 0.00 | 41 | 1007.6 |
| 20260503204228 | 61 | 168 | 4.3 | 15.6 | 0.00 | 0.00 | 0.00 | 42 | 1007.6 |
| 20260503203228 | 61 | 256 | 4.3 | 12.2 | 0.00 | 0.00 | 0.00 | 43 | 1007.8 |
| 20260503202229 | 61 | 195 | 3.5 | 9.6 | 0.00 | 0.00 | 0.00 | 42 | 1007.7 |
| 20260503201227 | 61 | 228 | 6.1 | 19.1 | 0.00 | 0.00 | 0.00 | 42 | 1007.8 |
| 20260503200228 | 61 | 244 | 3.5 | 15.6 | 0.00 | 0.00 | 0.00 | 41 | 1008.0 |
| 20260503195228 | 61 | 175 | 4.3 | 13.9 | 0.00 | 0.00 | 0.00 | 40 | 1008.0 |
| 20260503194226 | 62 | 266 | 4.3 | 13.9 | 0.00 | 0.00 | 0.00 | 39 | 1008.2 |
| 20260503193230 | 62 | 198 | 3.5 | 13.9 | 0.00 | 0.00 | 0.00 | 43 | 1008.3 |
| 20260503192232 | 62 | 275 | 3.5 | 12.2 | 0.00 | 0.00 | 0.00 | 42 | 1008.3 |
| 20260503191224 | 60 | 238 | 6.1 | 19.1 | 0.00 | 0.00 | 0.00 | 44 | 1008.6 |
| 20260503190226 | 60 | 238 | 4.3 | 10.4 | 0.00 | 0.00 | 0.00 | 45 | 1008.6 |
| 20260503185226 | 61 | 15 | 3.5 | 10.4 | 0.00 | 0.00 | 0.00 | 44 | 1008.9 |
| 20260503184227 | 62 | 147 | 4.3 | 13.9 | 0.00 | 0.00 | 0.00 | 45 | 1009.0 |
| 20260503183227 | 60 | 215 | 4.3 | 15.6 | 0.00 | 0.00 | 0.00 | 45 | 1009.1 |
| 20260503182230 | 58 | 163 | 4.3 | 13.9 | 0.00 | 0.00 | 0.00 | 45 | 1009.3 |
| 20260503181226 | 59 | 263 | 4.3 | 17.4 | 0.00 | 0.00 | 0.00 | 44 | 1009.4 |
| 20260503180229 | 59 | 253 | 6.1 | 23.5 | 0.00 | 0.00 | 0.00 | 43 | 1009.5 |
| 20260503175222 | 60 | 223 | 4.3 | 20.0 | 0.00 | 0.00 | 0.00 | 43 | 1009.5 |
| 20260503174218 | 60 | 254 | 4.3 | 17.4 | 0.00 | 0.00 | 0.00 | 43 | 1009.6 |
| 20260503173218 | 60 | 267 | 3.5 | 15.6 | 0.00 | 0.00 | 0.00 | 44 | 1009.7 |
| 20260503172222 | 59 | 262 | 4.3 | 13.9 | 0.00 | 0.00 | 0.00 | 43 | 1009.9 |
| 20260503171219 | 59 | 294 | 4.3 | 17.4 | 0.00 | 0.00 | 0.00 | 43 | 1010.1 |
| 20260503170218 | 58 | 167 | 4.3 | 13.9 | 0.00 | 0.00 | 0.00 | 44 | 1010.2 |
| 20260503160218 | 56 | 168 | 3.5 | 12.2 | 0.00 | 0.00 | 0.00 | 46 | 1011.1 |
| 20260503150211 | 57 | 154 | 3.5 | 13.9 | 0.00 | 0.00 | 0.00 | 45 | 1011.1 |
| 20260503140210 | 54 | 5 | 4.3 | 21.7 | 0.00 | 0.00 | 0.00 | 46 | 1011.4 |
| 20260503131210 | 50 | 189 | 1.7 | 7.8 | 0.00 | 0.00 | 0.00 | 51 | 1011.7 |
| 20260503130210 | 49 | 186 | 1.7 | 9.6 | 0.00 | 0.00 | 0.00 | 54 | 1011.7 |
| 20260503120206 | 43 | 134 | 1.7 | 4.3 | 0.00 | 0.00 | 0.00 | 60 | 1011.9 |
| 20260503110202 | 38 | 208 | 1.7 | 9.6 | 0.00 | 0.00 | 0.00 | 66 | 1011.9 |
| 20260503100155 | 33 | 173 | 0.0 | 0.0 | 0.00 | 0.00 | 0.00 | 79 | 1012.3 |
| 20260503090156 | 33 | 173 | 0.0 | 0.0 | 0.00 | 0.00 | 0.00 | 79 | 1012.9 |
| 20260503081152 | 33 | 173 | 0.0 | 0.0 | 0.00 | 0.00 | 0.00 | 76 | 1013.1 |
| 20260503080151 | 33 | 173 | 0.0 | 0.0 | 0.00 | 0.00 | 0.00 | 78 | 1013.1 |
| 20260503072151 | 34 | 173 | 0.0 | 0.0 | 0.00 | 0.00 | 0.00 | 79 | 1013.2 |
| 20260503071152 | 34 | 173 | 0.0 | 0.0 | 0.00 | 0.00 | 0.00 | 79 | 1013.2 |
| 20260503070152 | 34 | 173 | 0.0 | 0.0 | 0.00 | 0.00 | 0.00 | 77 | 1013.3 |
| 20260503060149 | 34 | 173 | 0.0 | 0.0 | 0.00 | 0.00 | 0.00 | 78 | 1013.7 |
| 20260503054150 | 34 | 173 | 0.0 | 0.0 | 0.00 | 0.00 | 0.00 | 79 | 1013.8 |
| 20260503053150 | 34 | 173 | 0.0 | 0.0 | 0.00 | 0.00 | 0.00 | 79 | 1013.8 |
| 20260503052149 | 35 | 173 | 0.0 | 0.0 | 0.00 | 0.00 | 0.00 | 78 | 1013.8 |